Year,Month,Day,Hour,Minute,Value (Times are PST for temperature in C)
2019,04,26,00,00,9.50
2019,04,26,00,01,9.50
2019,04,26,00,02,9.50
2019,04,26,00,03,9.50
2019,04,26,00,04,9.50
2019,04,26,00,05,9.50
2019,04,26,00,06,9.50
2019,04,26,00,07,9.50
2019,04,26,00,08,9.50
2019,04,26,00,09,9.40
2019,04,26,00,10,9.40
2019,04,26,00,11,9.40
2019,04,26,00,12,9.40
2019,04,26,00,13,9.40
2019,04,26,00,14,9.30
2019,04,26,00,15,9.30
2019,04,26,00,16,9.30
2019,04,26,00,17,9.20
2019,04,26,00,18,9.20
2019,04,26,00,19,9.20
2019,04,26,00,20,9.20
2019,04,26,00,21,9.20
2019,04,26,00,22,9.20
2019,04,26,00,23,9.20
2019,04,26,00,24,9.20
2019,04,26,00,25,9.20
2019,04,26,00,26,9.20
2019,04,26,00,27,9.20
2019,04,26,00,28,9.20
2019,04,26,00,29,9.20
2019,04,26,00,30,9.20
2019,04,26,00,31,9.20
2019,04,26,00,32,9.10
2019,04,26,00,33,9.10
2019,04,26,00,34,9.10
2019,04,26,00,35,9.10
2019,04,26,00,36,9.10
2019,04,26,00,37,9.10
2019,04,26,00,38,9.10
2019,04,26,00,39,9.10
2019,04,26,00,40,9.00
2019,04,26,00,41,9.00
2019,04,26,00,42,9.00
2019,04,26,00,43,9.00
2019,04,26,00,44,9.00
2019,04,26,00,45,9.00
2019,04,26,00,46,8.90
2019,04,26,00,47,8.90
2019,04,26,00,48,8.90
2019,04,26,00,49,8.90
2019,04,26,00,50,8.90
2019,04,26,00,51,8.90
2019,04,26,00,52,8.90
2019,04,26,00,53,8.90
2019,04,26,00,54,8.90
2019,04,26,00,55,8.90
2019,04,26,00,56,8.90
2019,04,26,00,57,8.90
2019,04,26,00,58,8.90
2019,04,26,00,59,8.80
2019,04,26,01,00,8.80
2019,04,26,01,01,8.80
2019,04,26,01,02,8.80
2019,04,26,01,03,8.80
2019,04,26,01,04,8.80
2019,04,26,01,05,8.70
2019,04,26,01,06,8.70
2019,04,26,01,07,8.70
2019,04,26,01,08,8.70
2019,04,26,01,09,8.70
2019,04,26,01,10,8.70
2019,04,26,01,11,8.70
2019,04,26,01,12,8.70
2019,04,26,01,13,8.70
2019,04,26,01,14,8.60
2019,04,26,01,15,8.60
2019,04,26,01,16,8.60
2019,04,26,01,17,8.60
2019,04,26,01,18,8.60
2019,04,26,01,19,8.50
2019,04,26,01,20,8.50
2019,04,26,01,21,8.50
2019,04,26,01,22,8.50
2019,04,26,01,23,8.40
2019,04,26,01,24,8.40
2019,04,26,01,25,8.40
2019,04,26,01,26,8.40
2019,04,26,01,27,8.40
2019,04,26,01,28,8.30
2019,04,26,01,29,8.30
2019,04,26,01,30,8.20
2019,04,26,01,31,8.20
2019,04,26,01,32,8.20
2019,04,26,01,33,8.20
2019,04,26,01,34,8.20
2019,04,26,01,35,8.20
2019,04,26,01,36,8.20
2019,04,26,01,37,8.10
2019,04,26,01,38,8.10
2019,04,26,01,39,8.10
2019,04,26,01,40,8.00
2019,04,26,01,41,8.00
2019,04,26,01,42,8.00
2019,04,26,01,43,8.00
2019,04,26,01,44,8.00
2019,04,26,01,45,7.90
2019,04,26,01,46,7.90
2019,04,26,01,47,7.90
2019,04,26,01,48,7.90
2019,04,26,01,49,7.80
2019,04,26,01,50,7.80
2019,04,26,01,51,7.80
2019,04,26,01,52,7.80
2019,04,26,01,53,7.80
2019,04,26,01,54,7.80
2019,04,26,01,55,7.80
2019,04,26,01,56,7.70
2019,04,26,01,57,7.70
2019,04,26,01,58,7.70
2019,04,26,01,59,7.70
2019,04,26,02,00,7.60
2019,04,26,02,01,7.60
2019,04,26,02,02,7.60
2019,04,26,02,03,7.50
2019,04,26,02,04,7.50
2019,04,26,02,05,7.50
2019,04,26,02,06,7.40
2019,04,26,02,07,7.40
2019,04,26,02,08,7.40
2019,04,26,02,09,7.30
2019,04,26,02,10,7.30
2019,04,26,02,11,7.30
2019,04,26,02,12,7.30
2019,04,26,02,13,7.30
2019,04,26,02,14,7.30
2019,04,26,02,15,7.30
2019,04,26,02,16,7.20
2019,04,26,02,17,7.20
2019,04,26,02,18,7.20
2019,04,26,02,19,7.20
2019,04,26,02,20,7.10
2019,04,26,02,21,7.10
2019,04,26,02,22,7.10
2019,04,26,02,23,7.10
2019,04,26,02,24,7.00
2019,04,26,02,25,7.00
2019,04,26,02,26,6.90
2019,04,26,02,27,6.90
2019,04,26,02,28,6.90
2019,04,26,02,29,6.80
2019,04,26,02,30,6.80
2019,04,26,02,31,6.80
2019,04,26,02,32,6.80
2019,04,26,02,33,6.80
2019,04,26,02,34,6.80
2019,04,26,02,35,6.80
2019,04,26,02,36,6.70
2019,04,26,02,37,6.70
2019,04,26,02,38,6.70
2019,04,26,02,39,6.70
2019,04,26,02,40,6.70
2019,04,26,02,41,6.60
2019,04,26,02,42,6.60
2019,04,26,02,43,6.60
2019,04,26,02,44,6.60
2019,04,26,02,45,6.60
2019,04,26,02,46,6.60
2019,04,26,02,47,6.60
2019,04,26,02,48,6.50
2019,04,26,02,49,6.40
2019,04,26,02,50,6.40
2019,04,26,02,51,6.40
2019,04,26,02,52,6.40
2019,04,26,02,53,6.40
2019,04,26,02,54,6.30
2019,04,26,02,55,6.30
2019,04,26,02,56,6.30
2019,04,26,02,57,6.20
2019,04,26,02,58,6.20
2019,04,26,02,59,6.20
2019,04,26,03,00,6.20
2019,04,26,03,01,6.20
2019,04,26,03,02,6.20
2019,04,26,03,03,6.20
2019,04,26,03,04,6.20
2019,04,26,03,05,6.10
2019,04,26,03,06,6.10
2019,04,26,03,07,6.10
2019,04,26,03,08,6.10
2019,04,26,03,09,6.00
2019,04,26,03,10,6.00
2019,04,26,03,11,6.00
2019,04,26,03,12,5.90
2019,04,26,03,13,5.90
2019,04,26,03,14,5.90
2019,04,26,03,15,5.90
2019,04,26,03,16,5.90
2019,04,26,03,17,5.90
2019,04,26,03,18,5.90
2019,04,26,03,19,5.90
2019,04,26,03,20,5.90
2019,04,26,03,21,5.90
2019,04,26,03,22,5.90
2019,04,26,03,23,5.90
2019,04,26,03,24,5.80
2019,04,26,03,25,5.80
2019,04,26,03,26,5.80
2019,04,26,03,27,5.70
2019,04,26,03,28,5.70
2019,04,26,03,29,5.70
2019,04,26,03,30,5.70
2019,04,26,03,31,5.70
2019,04,26,03,32,5.70
2019,04,26,03,33,5.70
2019,04,26,03,34,5.60
2019,04,26,03,35,5.60
2019,04,26,03,36,5.60
2019,04,26,03,37,5.50
2019,04,26,03,38,5.50
2019,04,26,03,39,5.50
2019,04,26,03,40,5.50
2019,04,26,03,41,5.50
2019,04,26,03,42,5.50
2019,04,26,03,43,5.40
2019,04,26,03,44,5.40
2019,04,26,03,45,5.40
2019,04,26,03,46,5.40
2019,04,26,03,47,5.30
2019,04,26,03,48,5.30
2019,04,26,03,49,5.30
2019,04,26,03,50,5.30
2019,04,26,03,51,5.30
2019,04,26,03,52,5.30
2019,04,26,03,53,5.30
2019,04,26,03,54,5.20
2019,04,26,03,55,5.20
2019,04,26,03,56,5.20
2019,04,26,03,57,5.10
2019,04,26,03,58,5.10
2019,04,26,03,59,5.10
2019,04,26,04,00,5.10
2019,04,26,04,01,5.10
2019,04,26,04,02,5.10
2019,04,26,04,03,5.10
2019,04,26,04,04,5.10
2019,04,26,04,05,5.10
2019,04,26,04,06,5.10
2019,04,26,04,07,5.10
2019,04,26,04,08,5.10
2019,04,26,04,09,5.10
2019,04,26,04,10,5.10
2019,04,26,04,11,5.10
2019,04,26,04,12,5.10
2019,04,26,04,13,5.10
2019,04,26,04,14,5.10
2019,04,26,04,15,5.10
2019,04,26,04,16,5.00
2019,04,26,04,17,4.90
2019,04,26,04,18,4.90
2019,04,26,04,19,4.90
2019,04,26,04,20,4.90
2019,04,26,04,21,4.90
2019,04,26,04,22,4.90
2019,04,26,04,23,4.80
2019,04,26,04,24,4.80
2019,04,26,04,25,4.80
2019,04,26,04,26,4.70
2019,04,26,04,27,4.70
2019,04,26,04,28,4.70
2019,04,26,04,29,4.70
2019,04,26,04,30,4.70
2019,04,26,04,31,4.60
2019,04,26,04,32,4.60
2019,04,26,04,33,4.60
2019,04,26,04,34,4.60
2019,04,26,04,35,4.60
2019,04,26,04,36,4.60
2019,04,26,04,37,4.60
2019,04,26,04,38,4.60
2019,04,26,04,39,4.60
2019,04,26,04,40,4.60
2019,04,26,04,41,4.60
2019,04,26,04,42,4.60
2019,04,26,04,43,4.60
2019,04,26,04,44,4.60
2019,04,26,04,45,4.60
2019,04,26,04,46,4.60
2019,04,26,04,47,4.60
2019,04,26,04,48,4.60
2019,04,26,04,49,4.60
2019,04,26,04,50,4.60
2019,04,26,04,51,4.60
2019,04,26,04,52,4.60
2019,04,26,04,53,4.60
2019,04,26,04,54,4.60
2019,04,26,04,55,4.60
2019,04,26,04,56,4.50
2019,04,26,04,57,4.50
2019,04,26,04,58,4.50
2019,04,26,04,59,4.50
2019,04,26,05,00,4.50
2019,04,26,05,01,4.50
2019,04,26,05,02,4.50
2019,04,26,05,03,4.50
2019,04,26,05,04,4.50
2019,04,26,05,05,4.50
2019,04,26,05,06,4.50
2019,04,26,05,07,4.50
2019,04,26,05,08,4.40
2019,04,26,05,09,4.40
2019,04,26,05,10,4.40
2019,04,26,05,11,4.40
2019,04,26,05,12,4.40
2019,04,26,05,13,4.40
2019,04,26,05,14,4.30
2019,04,26,05,15,4.30
2019,04,26,05,16,4.30
2019,04,26,05,17,4.20
2019,04,26,05,18,4.20
2019,04,26,05,19,4.20
2019,04,26,05,20,4.20
2019,04,26,05,21,4.20
2019,04,26,05,22,4.20
2019,04,26,05,23,4.10
2019,04,26,05,24,4.10
2019,04,26,05,25,4.10
2019,04,26,05,26,4.10
2019,04,26,05,27,4.00
2019,04,26,05,28,4.00
2019,04,26,05,29,4.00
2019,04,26,05,30,4.00
2019,04,26,05,31,4.00
2019,04,26,05,32,4.00
2019,04,26,05,33,4.00
2019,04,26,05,34,4.00
2019,04,26,05,35,3.90
2019,04,26,05,36,3.90
2019,04,26,05,37,3.90
2019,04,26,05,38,3.90
2019,04,26,05,39,3.90
2019,04,26,05,40,3.90
2019,04,26,05,41,3.90
2019,04,26,05,42,3.90
2019,04,26,05,43,3.90
2019,04,26,05,44,3.90
2019,04,26,05,45,3.90
2019,04,26,05,46,3.90
2019,04,26,05,47,3.90
2019,04,26,05,48,3.90
2019,04,26,05,49,3.90
2019,04,26,05,50,3.90
2019,04,26,05,51,3.90
2019,04,26,05,52,3.90
2019,04,26,05,53,3.80
2019,04,26,05,54,3.80
2019,04,26,05,55,3.80
2019,04,26,05,56,3.80
2019,04,26,05,57,3.80
2019,04,26,05,58,3.80
2019,04,26,05,59,3.80
2019,04,26,06,00,3.80
2019,04,26,06,01,3.90
2019,04,26,06,02,3.90
2019,04,26,06,03,3.90
2019,04,26,06,04,3.90
2019,04,26,06,05,3.90
2019,04,26,06,06,3.90
2019,04,26,06,07,3.90
2019,04,26,06,08,3.90
2019,04,26,06,09,3.90
2019,04,26,06,10,3.90
2019,04,26,06,11,3.90
2019,04,26,06,12,3.90
2019,04,26,06,13,3.90
2019,04,26,06,14,3.90
2019,04,26,06,15,3.90
2019,04,26,06,16,3.80
2019,04,26,06,17,3.80
2019,04,26,06,18,3.80
2019,04,26,06,19,3.80
2019,04,26,06,20,3.80
2019,04,26,06,21,3.80
2019,04,26,06,22,3.80
2019,04,26,06,23,3.80
2019,04,26,06,24,3.80
2019,04,26,06,25,3.80
2019,04,26,06,26,3.80
2019,04,26,06,27,3.80
2019,04,26,06,28,3.90
2019,04,26,06,29,3.90
2019,04,26,06,30,3.90
2019,04,26,06,31,3.90
2019,04,26,06,32,3.90
2019,04,26,06,33,4.00
2019,04,26,06,34,4.00
2019,04,26,06,35,4.00
2019,04,26,06,36,4.00
2019,04,26,06,37,4.00
2019,04,26,06,38,4.10
2019,04,26,06,39,4.10
2019,04,26,06,40,4.20
2019,04,26,06,41,4.20
2019,04,26,06,42,4.20
2019,04,26,06,43,4.20
2019,04,26,06,44,4.30
2019,04,26,06,45,4.30
2019,04,26,06,46,4.40
2019,04,26,06,47,4.40
2019,04,26,06,48,4.50
2019,04,26,06,49,4.50
2019,04,26,06,50,4.60
2019,04,26,06,51,4.60
2019,04,26,06,52,4.60
2019,04,26,06,53,4.70
2019,04,26,06,54,4.70
2019,04,26,06,55,4.80
2019,04,26,06,56,4.80
2019,04,26,06,57,4.90
2019,04,26,06,58,4.90
2019,04,26,06,59,4.90
2019,04,26,07,00,5.00
2019,04,26,07,01,5.10
2019,04,26,07,02,5.10
2019,04,26,07,03,5.20
2019,04,26,07,04,5.30
2019,04,26,07,05,5.40
2019,04,26,07,06,5.50
2019,04,26,07,07,5.60
2019,04,26,07,08,5.60
2019,04,26,07,09,5.70
2019,04,26,07,10,5.70
2019,04,26,07,11,5.80
2019,04,26,07,12,5.80
2019,04,26,07,13,5.90
2019,04,26,07,14,5.90
2019,04,26,07,15,6.00
2019,04,26,07,16,6.00
2019,04,26,07,17,6.10
2019,04,26,07,18,6.20
2019,04,26,07,19,6.20
2019,04,26,07,20,6.30
2019,04,26,07,21,6.40
2019,04,26,07,22,6.50
2019,04,26,07,23,6.70
2019,04,26,07,24,6.80
2019,04,26,07,25,6.80
2019,04,26,07,26,6.90
2019,04,26,07,27,7.00
2019,04,26,07,28,7.10
2019,04,26,07,29,7.20
2019,04,26,07,30,7.30
2019,04,26,07,31,7.30
2019,04,26,07,32,7.30
2019,04,26,07,33,7.40
2019,04,26,07,34,7.50
2019,04,26,07,35,7.60
2019,04,26,07,36,7.70
2019,04,26,07,37,7.80
2019,04,26,07,38,7.90
2019,04,26,07,39,8.00
2019,04,26,07,40,8.10
2019,04,26,07,41,8.20
2019,04,26,07,42,8.30
2019,04,26,07,43,8.40
2019,04,26,07,44,8.50
2019,04,26,07,45,8.60
2019,04,26,07,46,8.70
2019,04,26,07,47,8.80
2019,04,26,07,48,8.90
2019,04,26,07,49,8.90
2019,04,26,07,50,9.00
2019,04,26,07,51,9.10
2019,04,26,07,52,9.20
2019,04,26,07,53,9.20
2019,04,26,07,54,9.30
2019,04,26,07,55,9.40
2019,04,26,07,56,9.40
2019,04,26,07,57,9.50
2019,04,26,07,58,9.60
2019,04,26,07,59,9.70
2019,04,26,08,00,9.70
2019,04,26,08,01,9.80
2019,04,26,08,02,9.90
2019,04,26,08,03,9.90
2019,04,26,08,04,9.90
2019,04,26,08,05,10.10
2019,04,26,08,06,10.10
2019,04,26,08,07,10.20
2019,04,26,08,08,10.30
2019,04,26,08,09,10.40
2019,04,26,08,10,10.50
2019,04,26,08,11,10.60
2019,04,26,08,12,10.70
2019,04,26,08,13,10.70
2019,04,26,08,14,10.80
2019,04,26,08,15,10.80
2019,04,26,08,16,10.80
2019,04,26,08,17,10.80
2019,04,26,08,18,10.70
2019,04,26,08,19,10.70
2019,04,26,08,20,10.60
2019,04,26,08,21,10.60
2019,04,26,08,22,10.60
2019,04,26,08,23,10.60
2019,04,26,08,24,10.60
2019,04,26,08,25,10.60
2019,04,26,08,26,10.60
2019,04,26,08,27,10.60
2019,04,26,08,28,10.70
2019,04,26,08,29,10.70
2019,04,26,08,30,10.80
2019,04,26,08,31,10.80
2019,04,26,08,32,10.90
2019,04,26,08,33,10.90
2019,04,26,08,34,11.10
2019,04,26,08,35,11.10
2019,04,26,08,36,11.10
2019,04,26,08,37,11.20
2019,04,26,08,38,11.30
2019,04,26,08,39,11.40
2019,04,26,08,40,11.50
2019,04,26,08,41,11.60
2019,04,26,08,42,11.60
2019,04,26,08,43,11.70
2019,04,26,08,44,11.80
2019,04,26,08,45,11.80
2019,04,26,08,46,11.90
2019,04,26,08,47,11.90
2019,04,26,08,48,11.90
2019,04,26,08,49,11.90
2019,04,26,08,50,12.00
2019,04,26,08,51,12.00
2019,04,26,08,52,12.00
2019,04,26,08,53,12.00
2019,04,26,08,54,12.10
2019,04,26,08,55,12.20
2019,04,26,08,56,12.30
2019,04,26,08,57,12.40
2019,04,26,08,58,12.50
2019,04,26,08,59,12.60
2019,04,26,09,00,12.70
2019,04,26,09,01,12.80
2019,04,26,09,02,12.80
2019,04,26,09,03,12.80
2019,04,26,09,04,12.80
2019,04,26,09,05,12.80
2019,04,26,09,06,12.80
2019,04,26,09,07,12.80
2019,04,26,09,08,12.80
2019,04,26,09,09,12.70
2019,04,26,09,10,12.70
2019,04,26,09,11,12.70
2019,04,26,09,12,12.60
2019,04,26,09,13,12.60
2019,04,26,09,14,12.50
2019,04,26,09,15,12.50
2019,04,26,09,16,12.40
2019,04,26,09,17,12.30
2019,04,26,09,18,12.20
2019,04,26,09,19,12.10
2019,04,26,09,20,12.10
2019,04,26,09,21,12.00
2019,04,26,09,22,12.00
2019,04,26,09,23,12.00
2019,04,26,09,24,12.00
2019,04,26,09,25,11.90
2019,04,26,09,26,11.90
2019,04,26,09,27,11.80
2019,04,26,09,28,11.80
2019,04,26,09,29,11.80
2019,04,26,09,30,11.80
2019,04,26,09,31,11.80
2019,04,26,09,32,11.80
2019,04,26,09,33,11.80
2019,04,26,09,34,11.80
2019,04,26,09,35,11.80
2019,04,26,09,36,11.90
2019,04,26,09,37,11.90
2019,04,26,09,38,12.00
2019,04,26,09,39,12.10
2019,04,26,09,40,12.10
2019,04,26,09,41,12.20
2019,04,26,09,42,12.30
2019,04,26,09,43,12.30
2019,04,26,09,44,12.30
2019,04,26,09,45,12.30
2019,04,26,09,46,12.30
2019,04,26,09,47,12.20
2019,04,26,09,48,12.20
2019,04,26,09,49,12.20
2019,04,26,09,50,12.20
2019,04,26,09,51,12.20
2019,04,26,09,52,12.30
2019,04,26,09,53,12.30
2019,04,26,09,54,12.30
2019,04,26,09,55,12.30
2019,04,26,09,56,12.40
2019,04,26,09,57,12.40
2019,04,26,09,58,12.40
2019,04,26,09,59,12.50
2019,04,26,10,00,12.50
2019,04,26,10,01,12.50
2019,04,26,10,02,12.60
2019,04,26,10,03,12.60
2019,04,26,10,04,12.60
2019,04,26,10,05,12.60
2019,04,26,10,06,12.60
2019,04,26,10,07,12.60
2019,04,26,10,08,12.60
2019,04,26,10,09,12.60
2019,04,26,10,10,12.60
2019,04,26,10,11,12.50
2019,04,26,10,12,12.50
2019,04,26,10,13,12.60
2019,04,26,10,14,12.60
2019,04,26,10,15,12.70
2019,04,26,10,16,12.70
2019,04,26,10,17,12.80
2019,04,26,10,18,12.80
2019,04,26,10,19,12.80
2019,04,26,10,20,12.90
2019,04,26,10,21,13.00
2019,04,26,10,22,13.00
2019,04,26,10,23,13.10
2019,04,26,10,24,13.10
2019,04,26,10,25,13.20
2019,04,26,10,26,13.20
2019,04,26,10,27,13.20
2019,04,26,10,28,13.20
2019,04,26,10,29,13.10
2019,04,26,10,30,13.10
2019,04,26,10,31,13.10
2019,04,26,10,32,13.20
2019,04,26,10,33,13.30
2019,04,26,10,34,13.30
2019,04,26,10,35,13.30
2019,04,26,10,36,13.20
2019,04,26,10,37,13.20
2019,04,26,10,38,13.20
2019,04,26,10,39,13.20
2019,04,26,10,40,13.10
2019,04,26,10,41,13.20
2019,04,26,10,42,13.20
2019,04,26,10,43,13.20
2019,04,26,10,44,13.20
2019,04,26,10,45,13.30
2019,04,26,10,46,13.20
2019,04,26,10,47,13.10
2019,04,26,10,48,13.10
2019,04,26,10,49,13.00
2019,04,26,10,50,12.90
2019,04,26,10,51,12.80
2019,04,26,10,52,12.80
2019,04,26,10,53,12.80
2019,04,26,10,54,12.80
2019,04,26,10,55,12.80
2019,04,26,10,56,12.80
2019,04,26,10,57,12.80
2019,04,26,10,58,12.80
2019,04,26,10,59,12.80
2019,04,26,11,00,12.70
2019,04,26,11,01,12.70
2019,04,26,11,02,12.60
2019,04,26,11,03,12.50
2019,04,26,11,04,12.40
2019,04,26,11,05,12.40
2019,04,26,11,06,12.30
2019,04,26,11,07,12.30
2019,04,26,11,08,12.30
2019,04,26,11,09,12.30
2019,04,26,11,10,12.30
2019,04,26,11,11,12.30
2019,04,26,11,12,12.30
2019,04,26,11,13,12.30
2019,04,26,11,14,12.30
2019,04,26,11,15,12.40
2019,04,26,11,16,12.40
2019,04,26,11,17,12.40
2019,04,26,11,18,12.40
2019,04,26,11,19,12.30
2019,04,26,11,20,12.40
2019,04,26,11,21,12.40
2019,04,26,11,22,12.40
2019,04,26,11,23,12.40
2019,04,26,11,24,12.40
2019,04,26,11,25,12.50
2019,04,26,11,26,12.50
2019,04,26,11,27,12.60
2019,04,26,11,28,12.60
2019,04,26,11,29,12.60
2019,04,26,11,30,12.60
2019,04,26,11,31,12.70
2019,04,26,11,32,12.70
2019,04,26,11,33,12.80
2019,04,26,11,34,12.80
2019,04,26,11,35,12.80
2019,04,26,11,36,12.90
2019,04,26,11,37,12.90
2019,04,26,11,38,12.90
2019,04,26,11,39,13.00
2019,04,26,11,40,13.00
2019,04,26,11,41,13.10
2019,04,26,11,42,13.10
2019,04,26,11,43,13.10
2019,04,26,11,44,13.10
2019,04,26,11,45,13.10
2019,04,26,11,46,13.10
2019,04,26,11,47,13.10
2019,04,26,11,48,13.10
2019,04,26,11,49,13.10
2019,04,26,11,50,13.20
2019,04,26,11,51,13.30
2019,04,26,11,52,13.40
2019,04,26,11,53,13.50
2019,04,26,11,54,13.60
2019,04,26,11,55,13.70
2019,04,26,11,56,13.80
2019,04,26,11,57,13.90
2019,04,26,11,58,14.10
2019,04,26,11,59,14.20
2019,04,26,12,00,14.20
2019,04,26,12,01,14.30
2019,04,26,12,02,14.40
2019,04,26,12,03,14.40
2019,04,26,12,04,14.40
2019,04,26,12,05,14.40
2019,04,26,12,06,14.40
2019,04,26,12,07,14.40
2019,04,26,12,08,14.40
2019,04,26,12,09,14.40
2019,04,26,12,10,14.30
2019,04,26,12,11,14.30
2019,04,26,12,12,14.20
2019,04,26,12,13,14.20
2019,04,26,12,14,14.10
2019,04,26,12,15,14.00
2019,04,26,12,16,13.90
2019,04,26,12,17,13.80
2019,04,26,12,18,13.70
2019,04,26,12,19,13.70
2019,04,26,12,20,13.70
2019,04,26,12,21,13.70
2019,04,26,12,22,13.70
2019,04,26,12,23,13.70
2019,04,26,12,24,13.70
2019,04,26,12,25,13.70
2019,04,26,12,26,13.70
2019,04,26,12,27,13.70
2019,04,26,12,28,13.70
2019,04,26,12,29,13.70
2019,04,26,12,30,13.60
2019,04,26,12,31,13.60
2019,04,26,12,32,13.50
2019,04,26,12,33,13.40
2019,04,26,12,34,13.40
2019,04,26,12,35,13.40
2019,04,26,12,36,13.50
2019,04,26,12,37,13.60
2019,04,26,12,38,13.70
2019,04,26,12,39,13.70
2019,04,26,12,40,13.80
2019,04,26,12,41,13.80
2019,04,26,12,42,13.80
2019,04,26,12,43,13.80
2019,04,26,12,44,13.80
2019,04,26,12,45,13.80
2019,04,26,12,46,13.90
2019,04,26,12,47,13.90
2019,04,26,12,48,13.80
2019,04,26,12,49,13.80
2019,04,26,12,50,13.70
2019,04,26,12,51,13.70
2019,04,26,12,52,13.60
2019,04,26,12,53,13.60
2019,04,26,12,54,13.50
2019,04,26,12,55,13.50
2019,04,26,12,56,13.50
2019,04,26,12,57,13.40
2019,04,26,12,58,13.40
2019,04,26,12,59,13.30
2019,04,26,13,00,13.30
2019,04,26,13,01,13.30
2019,04,26,13,02,13.30
2019,04,26,13,03,13.30
2019,04,26,13,04,13.30
2019,04,26,13,05,13.40
2019,04,26,13,06,13.40
2019,04,26,13,07,13.50
2019,04,26,13,08,13.50
2019,04,26,13,09,13.50
2019,04,26,13,10,13.50
2019,04,26,13,11,13.50
2019,04,26,13,12,13.50
2019,04,26,13,13,13.40
2019,04,26,13,14,13.40
2019,04,26,13,15,13.30
2019,04,26,13,16,13.30
2019,04,26,13,17,13.30
2019,04,26,13,18,13.20
2019,04,26,13,19,13.20
2019,04,26,13,20,13.20
2019,04,26,13,21,13.20
2019,04,26,13,22,13.10
2019,04,26,13,23,13.10
2019,04,26,13,24,13.00
2019,04,26,13,25,13.00
2019,04,26,13,26,12.90
2019,04,26,13,27,12.90
2019,04,26,13,28,12.90
2019,04,26,13,29,12.90
2019,04,26,13,30,12.90
2019,04,26,13,31,12.90
2019,04,26,13,32,12.90
2019,04,26,13,33,12.90
2019,04,26,13,34,12.80
2019,04,26,13,35,12.80
2019,04,26,13,36,12.80
2019,04,26,13,37,12.90
2019,04,26,13,38,12.90
2019,04,26,13,39,12.90
2019,04,26,13,40,12.90
2019,04,26,13,41,13.00
2019,04,26,13,42,13.00
2019,04,26,13,43,13.10
2019,04,26,13,44,13.20
2019,04,26,13,45,13.30
2019,04,26,13,46,13.30
2019,04,26,13,47,13.30
2019,04,26,13,48,13.30
2019,04,26,13,49,13.30
2019,04,26,13,50,13.20
2019,04,26,13,51,13.20
2019,04,26,13,52,13.10
2019,04,26,13,53,13.10
2019,04,26,13,54,13.10
2019,04,26,13,55,13.10
2019,04,26,13,56,13.10
2019,04,26,13,57,13.00
2019,04,26,13,58,13.00
2019,04,26,13,59,12.90
2019,04,26,14,00,12.90
2019,04,26,14,01,12.90
2019,04,26,14,02,12.90
2019,04,26,14,03,12.80
2019,04,26,14,04,12.80
2019,04,26,14,05,12.80
2019,04,26,14,06,12.90
2019,04,26,14,07,12.90
2019,04,26,14,08,13.00
2019,04,26,14,09,13.10
2019,04,26,14,10,13.10
2019,04,26,14,11,13.10
2019,04,26,14,12,13.20
2019,04,26,14,13,13.20
2019,04,26,14,14,13.20
2019,04,26,14,15,13.20
2019,04,26,14,16,13.30
2019,04,26,14,17,13.40
2019,04,26,14,18,13.50
2019,04,26,14,19,13.50
2019,04,26,14,20,13.60
2019,04,26,14,21,13.70
2019,04,26,14,22,13.70
2019,04,26,14,23,13.80
2019,04,26,14,24,13.80
2019,04,26,14,25,13.90
2019,04,26,14,26,13.90
2019,04,26,14,27,13.90
2019,04,26,14,28,13.80
2019,04,26,14,29,13.80
2019,04,26,14,30,13.80
2019,04,26,14,31,13.70
2019,04,26,14,32,13.70
2019,04,26,14,33,13.70
2019,04,26,14,34,13.70
2019,04,26,14,35,13.60
2019,04,26,14,36,13.60
2019,04,26,14,37,13.70
2019,04,26,14,38,13.70
2019,04,26,14,39,13.60
2019,04,26,14,40,13.70
2019,04,26,14,41,13.70
2019,04,26,14,42,13.70
2019,04,26,14,43,13.70
2019,04,26,14,44,13.70
2019,04,26,14,45,13.70
2019,04,26,14,46,13.70
2019,04,26,14,47,13.80
2019,04,26,14,48,13.80
2019,04,26,14,49,13.80
2019,04,26,14,50,13.90
2019,04,26,14,51,13.80
2019,04,26,14,52,13.80
2019,04,26,14,53,13.80
2019,04,26,14,54,13.70
2019,04,26,14,55,13.60
2019,04,26,14,56,13.50
2019,04,26,14,57,13.40
2019,04,26,14,58,13.30
2019,04,26,14,59,13.30
2019,04,26,15,00,13.20
2019,04,26,15,01,13.10
2019,04,26,15,02,13.10
2019,04,26,15,03,13.10
2019,04,26,15,04,13.10
2019,04,26,15,05,13.00
2019,04,26,15,06,13.00
2019,04,26,15,07,13.00
2019,04,26,15,08,13.00
2019,04,26,15,09,13.00
2019,04,26,15,10,13.00
2019,04,26,15,11,13.00
2019,04,26,15,12,13.10
2019,04,26,15,13,13.10
2019,04,26,15,14,13.10
2019,04,26,15,15,13.20
2019,04,26,15,16,13.20
2019,04,26,15,17,13.20
2019,04,26,15,18,13.30
2019,04,26,15,19,13.30
2019,04,26,15,20,13.30
2019,04,26,15,21,13.30
2019,04,26,15,22,13.30
2019,04,26,15,23,13.30
2019,04,26,15,24,13.30
2019,04,26,15,25,13.30
2019,04,26,15,26,13.30
2019,04,26,15,27,13.30
2019,04,26,15,28,13.30
2019,04,26,15,29,13.20
2019,04,26,15,30,13.20
2019,04,26,15,31,13.10
2019,04,26,15,32,13.10
2019,04,26,15,33,13.10
2019,04,26,15,34,13.10
2019,04,26,15,35,13.10
2019,04,26,15,36,13.00
2019,04,26,15,37,13.00
2019,04,26,15,38,13.00
2019,04,26,15,39,13.00
2019,04,26,15,40,13.00
2019,04,26,15,41,12.90
2019,04,26,15,42,12.90
2019,04,26,15,43,12.80
2019,04,26,15,44,12.80
2019,04,26,15,45,12.70
2019,04,26,15,46,12.70
2019,04,26,15,47,12.60
2019,04,26,15,48,12.60
2019,04,26,15,49,12.60
2019,04,26,15,50,12.60
2019,04,26,15,51,12.60
2019,04,26,15,52,12.60
2019,04,26,15,53,12.60
2019,04,26,15,54,12.60
2019,04,26,15,55,12.60
2019,04,26,15,56,12.60
2019,04,26,15,57,12.60
2019,04,26,15,58,12.60
2019,04,26,15,59,12.60
2019,04,26,16,00,12.50
2019,04,26,16,01,12.50
2019,04,26,16,02,12.50
2019,04,26,16,03,12.60
2019,04,26,16,04,12.60
2019,04,26,16,05,12.50
2019,04,26,16,06,12.60
2019,04,26,16,07,12.60
2019,04,26,16,08,12.60
2019,04,26,16,09,12.60
2019,04,26,16,10,12.50
2019,04,26,16,11,12.60
2019,04,26,16,12,12.60
2019,04,26,16,13,12.60
2019,04,26,16,14,12.60
2019,04,26,16,15,12.50
2019,04,26,16,16,12.50
2019,04,26,16,17,12.50
2019,04,26,16,18,12.40
2019,04,26,16,19,12.40
2019,04,26,16,20,12.30
2019,04,26,16,21,12.30
2019,04,26,16,22,12.30
2019,04,26,16,23,12.30
2019,04,26,16,24,12.30
2019,04,26,16,25,12.40
2019,04,26,16,26,12.50
2019,04,26,16,27,12.50
2019,04,26,16,28,12.50
2019,04,26,16,29,12.50
2019,04,26,16,30,12.50
2019,04,26,16,31,12.50
2019,04,26,16,32,12.50
2019,04,26,16,33,12.50
2019,04,26,16,34,12.50
2019,04,26,16,35,12.50
2019,04,26,16,36,12.40
2019,04,26,16,37,12.40
2019,04,26,16,38,12.40
2019,04,26,16,39,12.40
2019,04,26,16,40,12.40
2019,04,26,16,41,12.30
2019,04,26,16,42,12.30
2019,04,26,16,43,12.30
2019,04,26,16,44,12.30
2019,04,26,16,45,12.30
2019,04,26,16,46,12.30
2019,04,26,16,47,12.30
2019,04,26,16,48,12.30
2019,04,26,16,49,12.40
2019,04,26,16,50,12.40
2019,04,26,16,51,12.40
2019,04,26,16,52,12.40
2019,04,26,16,53,12.40
2019,04,26,16,54,12.40
2019,04,26,16,55,12.30
2019,04,26,16,56,12.30
2019,04,26,16,57,12.30
2019,04,26,16,58,12.30
2019,04,26,16,59,12.30
2019,04,26,17,00,12.30
2019,04,26,17,01,12.30
2019,04,26,17,02,12.40
2019,04,26,17,03,12.40
2019,04,26,17,04,12.30
2019,04,26,17,05,12.30
2019,04,26,17,06,12.20
2019,04,26,17,07,12.10
2019,04,26,17,08,12.10
2019,04,26,17,09,12.00
2019,04,26,17,10,12.00
2019,04,26,17,11,12.00
2019,04,26,17,12,12.00
2019,04,26,17,13,12.00
2019,04,26,17,14,11.90
2019,04,26,17,15,11.90
2019,04,26,17,16,11.80
2019,04,26,17,17,11.80
2019,04,26,17,18,11.80
2019,04,26,17,19,11.80
2019,04,26,17,20,11.80
2019,04,26,17,21,11.80
2019,04,26,17,22,11.90
2019,04,26,17,23,11.90
2019,04,26,17,24,11.90
2019,04,26,17,25,11.90
2019,04,26,17,26,11.80
2019,04,26,17,27,11.80
2019,04,26,17,28,11.70
2019,04,26,17,29,11.60
2019,04,26,17,30,11.60
2019,04,26,17,31,11.60
2019,04,26,17,32,11.60
2019,04,26,17,33,11.60
2019,04,26,17,34,11.60
2019,04,26,17,35,11.60
2019,04,26,17,36,11.60
2019,04,26,17,37,11.60
2019,04,26,17,38,11.60
2019,04,26,17,39,11.60
2019,04,26,17,40,11.60